Date,TemperatureHighF,TemperatureAvgF,TemperatureLowF,DewpointHighF,DewpointAvgF,DewpointLowF,HumidityHigh,HumidityAvg,HumidityLow,PressureMaxIn,PressureMinIn,WindSpeedMaxMPH,WindSpeedAvgMPH,GustSpeedMaxMPH,PrecipitationSumIn
2013-1-1,35.3,29.2,23.9,33.8,27.6,22.1,95,94,93,30.80,30.67,1,0,1,0.00
2013-1-2,36.9,29.1,25.4,35.3,27.4,23.6,95,93,93,30.67,30.51,0,0,0,0.00
2013-1-3,34.9,28.8,23.0,32.8,26.9,21.1,95,93,90,30.51,30.39,0,0,0,0.01
2013-1-4,38.5,35.4,33.5,37.4,34.2,31.9,96,95,94,30.60,30.44,1,0,1,0.19
2013-1-5,39.8,36.9,34.0,38.7,35.8,32.7,96,96,95,30.50,30.36,2,0,2,0.35
2013-1-6,42.7,39.1,36.9,41.9,38.0,35.8,97,96,96,30.43,30.28,0,0,0,0.26
2013-1-7,46.8,41.6,36.7,46.0,40.3,35.6,97,95,91,30.41,30.09,4,0,4,0.78
2013-1-8,48.6,40.5,37.4,48.1,39.3,36.1,98,95,94,30.44,29.92,7,1,7,1.50
2013-1-9,48.4,38.3,34.9,47.6,36.4,33.3,97,93,92,30.21,29.93,1,0,1,0.83
2013-1-10,36.7,34.9,32.4,35.1,33.3,30.6,95,94,92,30.38,30.21,2,0,2,0.08
2013-1-11,32.8,27.4,21.1,27.5,23.6,18.5,90,85,78,30.63,30.58,2,0,2,0.01
2013-1-12,31.0,23.1,18.4,25.8,20.0,15.8,94,88,79,30.75,30.62,1,0,1,0.00
2013-1-13,32.9,24.5,15.5,28.0,21.3,12.7,92,88,81,30.78,30.73,0,0,0,0.00
2013-1-14,34.6,31.1,27.7,31.3,28.6,25.5,92,90,88,30.87,30.75,0,0,0,0.00
2013-1-15,38.2,33.4,29.0,34.6,30.9,26.7,93,91,87,31.00,30.87,0,0,0,0.01
2013-1-16,36.9,28.1,21.8,33.8,25.9,19.3,95,91,87,30.98,30.82,0,0,0,0.01
2013-1-17,37.1,28.5,22.9,35.5,26.7,20.8,95,93,91,30.83,30.59,0,0,0,0.01
2013-1-18,37.4,29.4,22.7,35.6,27.6,20.7,95,93,92,30.64,30.55,0,0,0,0.01
2013-1-19,41.8,31.6,24.5,37.5,29.3,22.5,95,91,85,30.68,30.63,1,0,1,0.00
2013-1-20,46.1,32.2,25.6,41.6,29.5,23.6,95,90,80,30.69,30.57,1,0,1,0.01
2013-1-21,41.8,29.9,23.6,35.5,26.8,21.3,94,88,78,30.57,30.42,1,0,1,0.00
2013-1-22,40.7,30.8,23.2,35.8,27.9,21.0,94,89,80,30.45,30.21,0,0,0,0.00
2013-1-23,41.2,37.2,33.7,40.1,35.5,31.2,96,94,91,30.38,30.11,3,1,3,0.76
2013-1-24,42.1,37.6,33.5,40.5,36.1,31.9,96,95,93,30.49,30.31,1,0,1,0.18
2013-1-25,45.7,38.5,34.4,44.4,37.2,33.0,97,95,93,30.35,30.22,1,0,1,0.27
2013-1-26,39.2,35.5,32.0,37.9,34.1,30.5,96,95,94,30.30,30.17,0,0,0,0.18
2013-1-27,40.1,37.3,35.6,38.8,36.0,34.5,96,95,94,30.31,30.25,1,0,1,0.32
2013-1-28,38.9,36.7,35.6,37.5,35.5,34.6,96,95,94,30.33,30.26,1,0,1,0.18
2013-1-29,41.9,39.8,36.7,41.1,38.7,35.6,97,96,95,30.60,30.33,2,0,2,0.37
2013-1-30,46.3,42.7,40.5,45.2,41.6,39.4,97,96,96,30.65,30.59,1,0,1,0.07
2013-1-31,46.8,44.0,41.9,45.7,42.9,40.9,97,96,95,30.65,30.57,2,0,2,0.17
2013-2-1,47.3,43.4,40.3,45.8,42.1,39.0,96,95,93,30.72,30.61,1,0,1,0.01
2013-2-2,49.1,39.0,32.6,45.4,37.3,31.1,96,94,87,30.71,30.52,0,0,0,0.00
2013-2-3,43.6,40.8,38.7,42.2,39.5,37.3,96,95,94,30.59,30.48,1,0,1,0.14
2013-2-4,48.1,43.2,40.7,46.0,41.9,39.3,96,95,92,30.48,30.14,2,0,2,0.05
2013-2-5,49.0,44.4,39.4,44.7,41.6,38.1,96,90,77,30.18,30.05,8,1,8,0.22
2013-2-6,49.3,43.6,40.7,44.4,40.9,39.1,94,90,72,30.28,30.09,3,1,3,0.25
2013-2-7,48.4,40.0,30.8,41.4,37.0,28.5,95,89,75,30.50,30.09,2,0,2,0.04
2013-2-8,43.6,36.0,29.3,39.3,33.3,27.1,94,90,85,30.59,30.49,1,0,1,0.01
2013-2-9,43.9,39.0,34.2,40.0,36.3,31.8,94,90,83,30.64,30.55,1,0,1,0.01
2013-2-10,43.6,35.6,28.3,38.3,32.7,26.3,94,89,80,30.67,30.61,2,0,2,0.00
2013-2-11,44.3,40.5,37.8,42.1,38.6,35.6,95,93,91,30.63,30.60,1,0,1,0.06
2013-2-12,47.5,43.5,40.0,45.1,41.7,38.3,95,93,89,30.67,30.52,4,0,4,0.06
2013-2-13,50.6,44.8,38.2,44.3,40.6,35.2,92,85,78,30.78,30.54,3,1,3,0.01
2013-2-14,46.1,41.9,38.5,43.7,39.6,35.6,94,91,88,30.87,30.75,2,0,2,0.07
2013-2-15,50.8,42.6,37.1,44.1,39.6,34.9,94,90,75,30.87,30.47,1,0,1,0.00
2013-2-16,49.0,42.9,36.4,45.5,40.6,34.2,95,92,80,30.46,30.37,2,0,2,0.37
2013-2-17,45.9,40.5,36.2,41.9,37.9,33.9,95,91,81,30.52,30.43,2,0,2,0.01
2013-2-18,43.0,36.7,31.9,39.2,34.2,29.8,94,91,85,30.41,30.09,1,0,1,0.00
2013-2-19,46.1,34.5,27.2,35.7,29.9,25.2,93,84,60,30.30,30.08,4,0,4,0.01
2013-2-20,38.7,32.5,26.6,36.0,30.2,24.1,93,91,88,30.33,30.29,0,0,0,0.02
2013-2-21,41.0,37.5,32.4,39.5,35.8,30.3,95,93,92,30.31,30.26,2,0,2,0.44
2013-2-22,42.8,40.1,38.5,41.3,38.1,35.6,95,93,86,30.29,29.91,3,1,3,0.76
2013-2-23,45.9,40.3,37.8,41.4,36.9,34.8,93,88,77,30.62,30.13,2,0,2,0.00
2013-2-24,47.7,42.3,38.0,42.0,38.5,35.6,92,86,76,30.63,30.16,3,1,3,0.06
2013-2-25,44.3,39.6,37.1,39.3,37.6,35.1,95,93,82,30.57,30.12,4,1,4,1.40
2013-2-26,47.2,40.0,35.3,42.6,37.1,33.7,95,90,75,30.61,30.45,2,0,2,0.08
2013-2-27,47.2,41.0,36.4,42.3,38.3,34.5,95,90,82,30.60,30.45,1,0,1,0.15
2013-2-28,42.5,39.6,36.0,41.4,38.0,34.4,96,94,92,30.58,30.49,1,0,1,0.70
2013-3-1,54.2,50.1,42.1,50.8,48.2,40.8,97,93,85,30.57,30.50,4,1,4,1.26
2013-3-2,56.5,48.8,39.2,48.2,44.8,37.4,95,86,71,30.51,30.26,5,1,5,0.83
2013-3-3,47.0,39.5,31.0,41.7,36.5,28.7,93,89,80,30.62,30.44,2,0,2,0.03
2013-3-4,49.7,36.4,27.4,37.8,30.5,25.1,93,80,56,30.61,30.30,2,0,2,0.01
2013-3-5,46.8,41.2,31.7,36.3,33.0,28.0,88,73,57,30.30,30.07,3,1,3,0.01
2013-3-6,45.0,40.2,35.3,42.6,37.6,32.6,93,90,87,30.17,29.92,2,0,2,0.25
2013-3-7,47.2,42.1,38.7,44.5,39.9,36.5,94,92,90,30.42,30.17,1,0,1,0.21
2013-3-8,50.2,39.6,31.7,43.4,36.0,29.9,94,87,75,30.54,30.39,1,0,1,0.00
2013-3-9,51.8,38.5,28.8,43.8,34.0,26.6,93,84,69,30.79,30.54,2,0,2,0.00
2013-3-10,46.8,41.2,33.7,42.6,38.0,30.7,93,88,84,30.78,30.70,0,0,0,0.02
2013-3-11,51.5,42.7,35.5,41.8,38.1,33.0,92,84,69,30.73,30.44,1,0,1,0.06
2013-3-12,51.1,46.5,40.7,49.4,44.7,38.7,96,93,88,30.44,30.28,2,0,2,2.26
2013-3-13,54.4,49.9,47.2,52.7,48.2,45.8,95,94,91,30.45,30.34,2,0,2,0.91
2013-3-14,54.7,48.8,46.4,52.2,47.1,44.8,96,94,82,30.42,30.30,2,0,2,0.46
2013-3-15,56.0,49.3,44.8,52.6,47.3,43.2,96,93,86,30.49,30.40,1,0,1,0.66
2013-3-16,48.6,43.8,38.5,46.7,42.0,36.6,94,93,91,30.41,30.13,2,0,2,0.76
2013-3-17,49.0,41.3,37.1,42.4,37.8,35.5,94,88,73,30.42,30.21,3,1,3,0.18
2013-3-18,49.0,40.9,35.8,40.8,36.3,31.7,94,84,65,30.55,30.34,5,1,5,0.37
2013-3-19,49.7,39.4,30.4,39.0,33.7,27.6,91,81,61,30.55,29.90,1,0,1,0.13
2013-3-20,49.9,42.7,39.6,47.9,39.7,34.3,96,89,78,30.23,29.63,3,1,3,1.01
2013-3-21,49.1,41.0,35.1,40.6,34.3,31.0,89,77,59,30.46,30.23,4,1,4,0.00
2013-3-22,45.5,38.5,31.3,40.1,34.1,28.3,91,85,74,30.67,30.47,1,0,1,0.00
2013-3-23,47.5,36.6,29.0,36.0,30.4,26.4,91,79,60,30.70,30.60,2,0,2,0.00
2013-3-24,52.2,37.6,28.1,34.2,29.1,24.7,90,73,44,30.62,30.44,5,0,5,0.01
2013-3-25,58.1,42.3,31.3,39.6,33.1,26.8,88,72,45,30.46,30.26,2,0,2,0.00
2013-3-26,59.8,44.2,30.4,42.9,35.5,26.9,89,73,52,30.32,30.27,1,0,1,0.00
2013-3-27,61.7,46.3,32.0,46.6,38.2,28.4,90,75,57,30.31,30.24,2,0,2,0.00
2013-3-28,59.8,47.6,35.5,48.2,40.8,32.2,91,78,64,30.46,30.31,1,0,1,0.00
2013-3-29,62.5,49.7,39.4,49.4,42.6,36.2,91,77,59,30.57,30.46,2,0,2,0.00
2013-3-30,65.2,48.0,33.5,48.1,39.9,30.2,92,75,52,30.59,30.41,2,0,2,0.00
2013-3-31,71.8,51.9,33.8,48.9,41.2,30.9,92,70,42,30.41,30.23,2,0,2,0.00
2013-4-1,65.3,49.9,36.4,53.3,43.3,32.8,90,79,63,30.42,30.27,2,0,2,0.00
2013-4-2,59.4,50.1,42.8,49.3,44.9,39.3,91,82,69,30.49,30.42,3,0,3,0.00
2013-4-3,62.8,53.7,47.0,50.8,46.6,42.9,90,78,61,30.49,30.29,2,0,2,0.00
2013-4-4,54.7,50.4,44.8,51.0,46.9,41.9,93,88,80,30.28,29.91,2,0,2,0.58
2013-4-5,58.0,52.8,48.8,53.3,48.6,45.7,91,86,78,30.13,29.94,2,1,2,0.78
2013-4-6,54.7,48.5,43.0,47.7,44.4,39.7,91,86,73,30.19,29.97,3,1,3,0.31
2013-4-7,47.5,43.7,41.4,45.9,41.4,39.0,94,91,88,30.16,29.84,1,0,1,0.00
2013-4-8,54.4,47.5,42.1,49.1,44.1,40.2,93,88,80,30.55,30.16,1,0,1,0.00
2013-4-9,53.8,47.9,41.8,48.2,44.3,39.3,91,87,81,30.63,30.46,3,0,3,0.00
2013-4-10,56.2,48.8,45.7,50.6,45.9,43.3,96,90,76,30.49,30.15,6,1,6,0.00
2013-4-11,55.8,47.2,38.2,47.2,41.7,34.0,93,82,63,30.57,30.49,3,0,3,0.00
2013-4-12,44.8,40.2,35.5,40.8,37.2,32.5,92,89,83,30.48,29.93,2,0,2,0.00
2013-4-13,50.9,42.3,37.1,46.3,38.9,34.1,92,88,80,30.27,29.97,2,0,2,0.07
2013-4-14,53.6,45.1,37.6,43.0,39.5,34.9,93,82,65,30.30,30.21,3,0,3,0.00
2013-4-15,54.4,45.5,38.3,43.8,39.7,34.7,90,81,59,30.49,30.23,2,0,2,0.07
2013-4-16,58.3,44.6,31.7,39.2,32.6,29.2,92,67,34,30.69,30.49,5,1,5,0.01
2013-4-17,61.2,48.7,35.8,43.3,36.1,30.2,83,64,40,30.73,30.68,2,0,2,0.00
2013-4-18,55.1,48.3,44.3,45.7,42.3,37.3,89,80,67,30.72,30.47,3,0,3,0.25
2013-4-19,54.7,49.6,45.5,51.3,46.9,43.1,93,90,87,30.47,30.35,1,0,1,0.45
2013-4-20,57.4,50.3,46.6,49.7,46.2,43.9,93,86,72,30.53,30.43,4,1,4,0.46
2013-4-21,51.5,45.3,35.6,44.2,39.6,31.2,92,81,58,30.70,30.50,6,1,6,0.33
2013-4-22,61.2,45.5,30.2,37.7,32.0,27.5,92,63,33,30.83,30.70,4,1,4,0.00
2013-4-23,64.6,49.0,35.6,42.4,37.1,29.8,85,66,41,30.73,30.55,4,0,4,0.00
2013-4-24,68.6,50.5,33.1,45.6,36.4,29.3,89,62,33,30.64,30.37,2,0,2,0.00
2013-4-25,69.3,52.5,35.1,48.3,40.5,30.1,84,65,46,30.44,30.35,3,0,3,0.00
2013-4-26,67.7,55.2,43.4,52.2,44.8,38.7,85,69,50,30.52,30.44,3,0,3,0.00
2013-4-27,55.1,50.9,47.7,48.2,44.4,41.0,91,79,62,30.49,30.40,2,0,2,0.40
2013-4-28,58.1,50.5,44.5,47.9,44.1,41.5,91,79,62,30.49,30.20,4,1,4,0.39
2013-4-29,55.4,47.1,41.6,43.4,37.0,32.2,90,70,43,30.41,30.17,3,1,3,0.15
2013-4-30,57.6,46.4,39.2,42.1,37.0,32.9,85,71,51,30.74,30.41,2,0,2,0.01
2013-5-1,63.2,49.0,34.9,43.2,36.5,30.5,84,64,40,30.88,30.74,4,0,4,0.00
2013-5-2,67.0,52.2,37.1,45.4,39.6,32.9,85,65,38,30.86,30.69,3,0,3,0.00
2013-5-3,74.7,56.0,37.4,51.3,43.4,33.3,88,65,44,30.71,30.56,3,1,3,0.00
2013-5-4,80.8,60.7,40.5,47.9,42.3,36.3,88,57,23,30.58,30.35,5,1,5,0.00
2013-5-5,85.7,65.7,45.2,52.2,45.8,39.9,83,54,24,30.35,30.10,3,1,3,0.00
2013-5-6,85.0,66.2,47.3,55.1,49.1,41.5,82,58,31,30.19,30.07,5,1,5,0.00
2013-5-7,77.4,62.7,47.2,58.4,51.2,41.9,82,67,52,30.28,30.12,2,0,2,0.00
2013-5-8,72.0,58.8,47.2,57.8,50.9,42.9,87,76,61,30.44,30.29,4,1,4,0.00
2013-5-9,76.9,60.6,44.8,59.1,51.1,41.5,90,73,54,30.52,30.41,3,0,3,0.00
2013-5-10,79.9,63.5,45.7,59.1,52.7,42.1,89,70,49,30.52,30.42,3,0,3,0.00
2013-5-11,79.4,65.0,53.3,59.7,54.2,48.8,86,70,51,30.49,30.29,2,0,2,0.00
2013-5-12,72.2,62.1,57.2,61.3,56.6,52.9,90,82,63,30.36,30.30,3,0,3,1.25
2013-5-13,68.8,56.6,49.0,57.0,51.4,44.3,91,83,62,30.46,30.18,7,1,7,0.14
2013-5-14,60.5,52.7,46.8,49.7,46.1,42.8,89,79,63,30.52,30.44,2,0,2,0.09
2013-5-15,69.8,56.0,43.9,51.7,47.1,40.6,90,74,51,30.44,30.29,2,0,2,0.06
2013-5-16,70.0,59.4,51.1,54.9,51.2,47.7,90,75,57,30.34,30.18,2,0,2,0.05
2013-5-17,61.4,55.7,51.7,55.1,50.5,47.7,88,83,70,30.35,30.24,1,0,1,0.04
2013-5-18,59.6,54.7,51.5,54.5,50.7,47.9,91,86,79,30.57,30.35,1,0,1,0.03
2013-5-19,63.7,56.4,48.4,54.7,50.8,44.1,90,82,72,30.70,30.57,2,0,2,0.03
2013-5-20,71.1,56.3,42.8,54.5,48.2,39.5,91,75,56,30.67,30.23,3,0,3,0.03
2013-5-21,53.8,50.6,47.9,49.5,47.1,45.2,90,88,84,30.21,30.09,1,0,1,0.03
2013-5-22,61.2,52.3,46.1,50.6,46.8,43.7,92,82,68,30.25,30.14,2,0,2,0.02
2013-5-23,62.6,52.1,43.0,52.4,46.7,40.6,91,82,66,30.31,30.23,2,0,2,0.02
2013-5-24,65.7,54.4,43.2,52.8,47.1,40.8,92,77,60,30.34,30.29,2,0,2,0.02
2013-5-25,61.6,54.2,48.2,52.6,48.6,44.1,86,81,69,30.34,30.30,2,0,2,0.02
2013-5-26,58.0,52.1,46.4,53.9,49.0,43.1,91,89,85,30.31,30.26,1,0,1,0.01
2013-5-27,63.4,56.6,51.8,56.7,52.7,49.2,92,87,73,30.26,30.03,1,0,1,0.01
2013-5-28,64.3,56.5,50.8,54.9,51.9,47.6,93,85,69,30.17,30.06,3,0,3,0.02
2013-5-29,59.8,53.8,49.0,54.6,50.0,46.7,92,87,81,30.25,29.99,2,0,2,0.01
2013-5-30,64.1,55.3,49.3,53.0,49.3,46.5,91,81,66,30.54,30.25,3,0,3,0.02
2013-5-31,65.2,56.9,49.3,55.4,50.3,44.3,91,79,63,30.64,30.54,1,0,1,0.01
2013-6-1,66.8,57.1,45.7,54.0,49.3,42.3,91,76,59,30.57,30.39,2,0,2,0.01
2013-6-2,70.9,59.4,47.5,56.4,50.1,44.2,89,73,53,30.39,30.33,2,0,2,0.01
2013-6-3,74.5,61.3,45.9,57.7,50.6,42.3,88,69,52,30.43,30.37,2,0,2,0.01
2013-6-4,79.2,63.8,44.8,58.8,51.2,40.9,87,66,48,30.45,30.34,3,1,3,0.01
2013-6-5,77.9,64.3,53.1,62.5,53.6,48.0,83,69,51,30.39,30.34,2,0,2,0.02
2013-6-6,79.9,65.5,47.5,59.0,51.5,43.6,87,63,39,30.37,30.29,3,0,3,0.00
2013-6-7,69.1,62.2,55.8,55.0,49.0,40.1,74,62,48,30.44,30.30,3,1,3,0.01
2013-6-8,71.5,59.8,49.9,52.8,48.6,43.9,80,67,50,30.46,30.40,2,0,2,0.01
2013-6-9,70.9,60.1,49.1,53.7,49.1,42.2,80,68,49,30.41,30.33,2,0,2,0.01
2013-6-10,74.5,59.0,41.6,54.6,47.4,37.1,85,67,47,30.35,30.17,2,0,2,0.01
2013-6-11,65.3,57.5,54.0,52.5,47.8,45.8,80,71,57,30.40,30.21,2,0,2,0.01
2013-6-12,63.0,55.8,49.0,55.3,50.1,44.7,86,81,72,30.45,30.40,1,0,1,0.00
2013-6-13,68.4,58.2,47.2,55.3,49.6,43.6,89,74,58,30.48,30.44,0,0,0,0.01
2013-6-14,62.3,56.7,50.6,54.2,50.7,46.2,85,80,70,30.52,30.41,0,0,0,0.00
2013-6-15,79.9,63.1,43.0,59.6,52.0,39.7,89,69,47,30.40,30.23,0,0,0,0.00
2013-6-16,78.1,66.1,52.2,59.8,55.3,48.4,88,70,50,30.39,30.30,0,0,0,0.00
2013-6-17,76.1,65.5,56.5,60.5,55.9,52.4,86,72,54,30.39,30.21,0,0,0,0.00
2013-6-18,68.9,62.0,55.6,57.5,54.3,50.8,88,76,61,30.28,30.20,0,0,0,0.00
2013-6-19,64.1,58.9,54.0,57.4,53.0,49.2,86,81,75,30.28,30.21,0,0,0,0.01
2013-6-20,56.7,54.3,52.6,53.5,51.2,49.7,91,89,86,30.39,30.20,0,0,0,0.00
2013-6-21,65.0,58.4,52.4,56.9,53.0,49.5,91,83,72,30.47,30.39,0,0,0,0.00
2013-6-22,73.8,63.8,53.6,60.2,55.5,50.5,91,76,59,30.44,30.20,0,0,0,0.01
2013-6-23,73.1,64.0,50.0,62.5,56.7,46.5,88,78,67,30.20,29.92,0,0,0,0.00
2013-6-24,68.8,63.2,58.3,60.1,57.5,54.5,90,82,66,30.01,29.88,0,0,0,0.01
2013-6-25,76.7,63.2,56.5,61.4,56.4,52.8,89,79,52,30.14,30.00,0,0,0,0.01
2013-6-26,78.1,64.2,55.8,62.1,56.5,52.0,88,77,56,30.39,30.14,0,0,0,0.00
2013-6-27,69.5,63.9,58.7,61.9,58.8,54.9,89,84,76,30.53,30.37,0,0,0,0.00
2013-6-28,81.7,69.5,59.2,64.4,60.8,56.3,91,75,53,30.54,30.36,0,0,0,0.01
2013-6-29,85.5,73.6,62.3,69.6,63.6,57.4,85,72,59,30.41,30.31,0,0,0,0.01
2013-6-30,94.5,77.5,60.8,70.9,64.4,56.7,86,66,43,30.35,30.17,0,0,0,0.00
2013-7-1,91.8,77.1,62.8,70.2,63.6,57.3,82,65,46,30.30,30.21,0,0,0,0.00
2013-7-2,85.0,73.7,63.7,65.4,58.8,53.7,74,61,43,30.40,30.31,0,0,0,0.00
2013-7-3,81.0,68.6,58.7,61.0,53.2,47.1,70,59,42,30.46,30.34,0,0,0,0.00
2013-7-4,76.7,65.2,54.7,56.6,51.3,45.9,74,61,48,30.39,30.32,0,0,0,0.00
2013-7-5,76.1,64.4,53.6,58.6,53.3,48.0,82,68,52,30.34,30.26,0,0,0,0.00
2013-7-6,83.2,68.5,52.7,62.0,54.9,45.7,81,63,49,30.31,30.17,0,0,0,0.00
2013-7-7,82.1,69.0,58.3,60.5,55.9,51.3,79,64,48,30.25,30.18,0,0,0,0.00
2013-7-8,81.4,69.4,55.6,62.5,57.2,49.5,81,66,52,30.41,30.25,0,0,0,0.00
2013-7-9,86.4,71.4,56.0,64.5,57.5,49.9,81,63,43,30.42,30.30,0,0,0,0.00
2013-7-10,82.4,69.0,59.9,60.0,53.2,47.6,73,58,39,30.34,30.24,0,0,0,0.00
2013-7-11,77.4,65.3,56.9,54.3,48.8,45.2,68,56,39,30.36,30.26,0,0,0,0.00
2013-7-12,74.9,63.8,49.7,54.5,49.0,42.0,78,60,46,30.40,30.31,0,0,0,0.00
2013-7-13,77.2,64.5,51.8,54.5,50.0,44.6,78,61,44,30.51,30.40,0,0,0,0.00
2013-7-14,80.5,66.6,52.4,57.4,50.0,44.4,76,57,39,30.46,30.32,0,0,0,0.00
2013-7-15,83.9,67.8,50.2,52.0,48.1,41.9,78,52,29,30.38,30.24,0,0,0,0.00
2013-7-16,90.7,74.2,57.2,58.1,51.3,46.7,70,48,23,30.26,30.14,0,0,0,0.00
2013-7-17,79.7,70.9,64.8,63.9,59.6,55.8,80,68,56,30.50,30.18,0,0,0,0.10
2013-7-18,79.6,69.9,63.7,61.7,58.4,55.3,76,67,54,30.53,30.43,0,0,0,0.00
2013-7-19,82.8,70.5,59.0,65.3,59.0,52.7,81,68,52,30.47,30.34,0,0,0,0.00
2013-7-20,80.5,69.1,59.6,62.6,57.4,52.4,79,67,50,30.37,30.26,0,0,0,0.00
2013-7-21,81.2,68.5,57.4,62.4,56.5,50.6,78,66,52,30.28,30.21,0,0,0,0.00
2013-7-22,80.5,69.4,60.7,63.4,58.0,53.5,78,68,54,30.36,30.25,0,0,0,0.00
2013-7-23,86.0,71.0,56.0,63.2,56.8,49.9,81,63,45,30.39,30.28,0,0,0,0.00
2013-7-24,85.9,70.4,56.0,61.2,55.6,50.0,81,61,39,30.37,30.30,0,0,0,0.00
2013-7-25,84.8,69.9,55.1,61.7,55.2,47.6,78,61,44,30.41,30.34,0,0,0,0.00
2013-7-26,83.2,68.3,54.5,62.2,53.5,47.1,79,61,44,30.45,30.38,0,0,0,0.00
2013-7-27,79.4,65.5,51.8,57.8,50.5,44.9,79,60,39,30.46,30.31,0,0,0,0.00
2013-7-28,78.5,65.3,50.6,58.9,51.9,42.9,78,63,49,30.32,30.24,0,0,0,0.00
2013-7-29,78.7,67.0,54.0,60.6,55.2,47.0,81,66,53,30.32,30.25,0,0,0,0.00
2013-7-30,79.4,67.3,54.4,61.7,56.1,47.6,81,68,54,30.43,30.32,0,0,0,0.00
2013-7-31,76.3,66.6,55.3,61.9,57.2,50.1,85,72,59,30.43,30.30,0,0,0,0.00
2013-8-1,71.6,65.4,59.2,60.7,58.0,55.1,86,77,68,30.34,30.31,0,0,0,0.01
2013-8-2,65.0,61.7,59.4,57.9,56.3,54.6,88,83,73,30.45,30.34,0,0,0,0.27
2013-8-3,76.1,66.2,58.7,62.4,58.7,55.8,90,77,62,30.45,30.36,0,0,0,0.00
2013-8-4,81.4,70.2,60.1,65.4,60.8,56.0,86,73,58,30.39,30.26,0,0,0,0.00
2013-8-5,84.6,70.4,58.1,66.0,59.3,52.4,85,69,50,30.32,30.24,0,0,0,0.00
2013-8-6,84.6,69.7,54.9,62.1,56.0,49.1,81,64,42,30.31,30.24,0,0,0,0.00
2013-8-7,84.2,69.7,55.1,61.7,55.7,49.0,81,63,43,30.31,30.26,0,0,0,0.00
2013-8-8,84.2,71.8,60.7,63.4,58.3,52.2,76,64,49,30.33,30.24,0,0,0,0.00
2013-8-9,85.1,71.8,58.1,64.1,58.3,51.3,78,64,47,30.27,30.13,0,0,0,0.00
2013-8-10,81.2,70.9,62.8,65.2,59.8,54.7,82,69,56,30.31,30.18,0,0,0,0.00
2013-8-11,76.7,67.6,62.1,63.1,58.0,55.2,81,72,61,30.37,30.30,0,0,0,0.04
2013-8-12,77.2,69.6,63.0,62.2,58.6,55.3,77,69,57,30.37,30.30,0,0,0,0.00
2013-8-13,80.5,70.2,61.6,61.0,57.4,53.9,77,65,50,30.41,30.27,0,0,0,0.00
2013-8-14,80.8,68.2,55.6,62.9,57.2,49.1,81,69,52,30.28,30.21,0,0,0,0.06
2013-8-15,71.8,67.3,64.3,63.9,61.6,59.0,86,82,75,30.31,30.24,0,0,0,0.02
2013-8-16,80.8,71.1,61.0,64.1,61.0,55.9,83,71,56,30.32,30.27,0,0,0,0.01
2013-8-17,76.7,69.9,64.4,63.4,60.6,57.6,82,73,60,30.37,30.30,0,0,0,0.02
2013-8-18,75.6,67.7,62.6,60.9,58.2,56.7,82,72,60,30.42,30.36,0,0,0,0.01
2013-8-19,71.1,65.0,61.0,61.2,56.7,53.3,78,75,70,30.44,30.36,0,0,0,0.01
2013-8-20,76.0,64.1,52.2,59.5,53.1,47.3,84,69,49,30.48,30.40,0,0,0,0.00
2013-8-21,81.7,65.2,48.8,59.2,53.0,43.0,81,67,45,30.43,30.27,0,0,0,0.00
2013-8-22,83.9,68.2,52.2,60.7,54.2,45.4,82,63,40,30.29,30.10,0,0,0,0.00
2013-8-23,80.3,68.6,61.6,59.7,56.0,52.7,76,65,48,30.18,30.13,0,0,0,0.00
2013-8-24,74.0,65.6,59.0,61.0,56.5,52.8,84,73,61,30.23,30.18,0,0,0,0.00
2013-8-25,76.3,64.6,50.8,59.2,53.9,46.1,86,69,49,30.26,30.17,0,0,0,0.00
2013-8-26,76.7,67.3,60.5,59.2,56.2,54.0,80,68,55,30.23,30.15,0,0,0,0.00
2013-8-27,75.2,67.4,59.8,59.4,57.0,54.0,83,70,56,30.26,30.11,0,0,0,0.00
2013-8-28,76.7,67.7,60.8,65.5,61.3,56.7,90,80,67,30.22,30.14,0,0,0,0.00
2013-8-29,70.7,67.2,64.8,65.6,62.8,60.0,88,86,82,30.24,30.18,0,0,0,0.00
2013-8-30,71.1,65.1,57.4,62.0,58.9,53.6,87,80,71,30.47,30.23,0,0,0,0.00
2013-8-31,80.8,63.5,49.3,59.1,53.7,46.4,92,73,39,30.42,30.16,0,0,0,0.00
2013-9-1,79.9,65.8,52.2,62.8,56.0,47.3,86,72,56,30.20,30.10,0,0,0,0.00
2013-9-2,78.1,66.0,54.9,64.2,58.0,51.0,89,76,61,30.26,30.17,0,0,0,0.00
2013-9-3,70.6,63.2,58.7,63.4,58.3,54.3,90,84,77,30.34,30.25,0,0,0,0.00
2013-9-4,74.5,64.3,57.4,64.0,58.7,54.5,91,82,69,30.36,30.32,0,0,0,0.00
2013-9-5,68.9,61.9,55.6,62.6,57.9,52.7,92,87,77,30.36,30.22,0,0,0,0.00
2013-9-6,69.7,65.1,62.3,63.2,60.6,58.4,88,85,80,30.40,30.22,0,0,0,0.00
2013-9-7,76.3,66.2,59.8,64.1,60.1,56.9,92,81,63,30.41,30.34,0,0,0,0.00
2013-9-8,74.7,65.2,56.5,64.0,58.2,51.4,87,78,68,30.41,30.34,0,0,0,0.00
2013-9-9,74.7,64.6,54.9,63.0,57.6,50.9,87,78,67,30.37,30.30,0,0,0,0.00
2013-9-10,81.2,65.6,52.9,64.4,57.4,49.3,89,76,53,30.32,30.22,0,0,0,0.00
2013-9-11,90.5,71.1,57.2,63.0,57.4,52.4,87,66,31,30.29,30.21,0,0,0,0.00
2013-9-12,82.3,68.7,56.7,64.3,58.3,51.5,85,71,50,30.30,30.19,0,0,0,0.00
2013-9-13,73.1,65.1,58.7,63.2,58.2,53.3,84,78,71,30.27,30.16,0,0,0,0.00
2013-9-14,73.8,66.1,59.8,64.2,59.9,55.9,88,80,71,30.20,30.06,0,0,0,0.00
2013-9-15,70.2,62.3,58.7,63.4,58.5,55.8,92,87,77,30.12,30.01,0,0,0,0.00
2013-9-16,63.4,60.7,57.8,59.8,57.8,54.3,95,90,87,30.21,30.08,0,0,0,0.01
2013-9-17,63.4,58.2,53.3,56.7,53.8,50.1,99,86,76,30.22,30.15,0,0,0,0.00
2013-9-18,63.9,56.9,50.4,58.7,53.6,49.0,99,89,73,30.39,30.22,0,0,0,0.00
2013-9-19,81.7,63.1,48.1,81.4,48.6,13.4,99,68,1,30.38,30.09,0,0,0,0.00
2013-9-20,93.8,69.7,51.5,93.4,50.3,14.4,99,63,1,30.09,29.88,0,0,0,0.00
2013-9-21,90.9,77.9,64.1,90.5,76.4,63.8,99,95,67,30.01,29.95,0,0,0,0.00
2013-9-27,57.6,53.1,51.5,52.1,49.6,48.6,91,88,82,30.19,30.13,0,0,0,0.03
2013-9-28,58.0,52.0,50.0,56.5,49.9,48.1,96,93,91,30.13,29.58,0,0,0,1.17
2013-9-29,54.0,51.8,49.9,51.9,49.6,46.3,94,92,87,29.80,29.44,0,0,0,0.00
2013-9-30,53.6,49.7,46.4,51.0,47.0,44.6,93,90,84,30.19,29.62,0,0,0,0.00
2013-10-1,56.5,49.2,43.9,50.8,46.1,42.0,95,89,79,30.39,30.18,0,0,0,0.00
2013-10-2,51.5,48.6,46.1,48.9,46.6,44.5,94,93,91,30.49,30.37,0,0,0,0.00
2013-10-3,56.7,48.6,42.8,50.8,45.5,41.0,94,89,80,30.76,30.49,0,0,0,0.00
2013-10-4,59.8,48.9,36.4,51.1,44.8,34.2,95,86,72,30.79,30.66,0,0,0,0.00
2013-10-5,64.4,55.3,48.8,53.4,49.9,45.4,92,83,62,30.67,30.45,0,0,0,0.00
2013-10-6,71.1,55.3,41.0,56.2,45.4,38.8,94,73,40,30.45,30.10,0,0,0,0.00
2013-10-7,61.6,54.0,50.8,52.1,49.2,45.7,92,84,56,30.25,30.11,0,0,0,0.00
2013-10-8,53.5,47.9,40.7,48.2,44.9,38.3,94,89,78,30.41,30.22,0,0,0,0.00
2013-10-9,56.2,44.7,33.5,47.6,40.6,31.3,94,86,72,30.44,30.25,0,0,0,0.00
2013-10-10,56.0,49.2,41.6,49.5,45.0,38.8,90,85,79,30.38,30.23,0,0,0,0.00
2013-10-11,56.2,44.6,33.5,48.3,40.5,31.1,93,86,75,30.44,30.37,0,0,0,0.00
2013-10-12,58.7,48.3,40.0,48.6,43.1,36.4,94,83,62,30.52,30.38,0,0,0,0.00
2013-10-13,56.2,43.0,32.8,45.4,37.9,30.2,93,83,66,30.68,30.52,0,0,0,0.00
2013-10-14,57.6,42.5,31.9,46.2,37.4,29.1,92,83,64,30.72,30.67,0,0,0,0.00
2013-10-15,59.0,46.1,34.4,50.4,41.7,31.7,93,85,73,30.70,30.48,0,0,0,0.00
2013-10-16,63.4,48.4,40.7,50.6,43.2,38.2,94,83,58,30.51,30.43,0,0,0,0.00
2013-10-17,60.3,46.2,36.0,49.5,41.5,33.6,94,84,65,30.57,30.51,0,0,0,0.00
2013-10-18,59.6,43.9,33.5,49.0,39.2,30.8,93,84,65,30.56,30.46,0,0,0,0.00
2013-10-19,56.5,43.1,33.7,48.6,39.3,31.0,93,87,73,30.50,30.44,0,0,0,0.00
2013-10-20,54.7,47.1,42.3,49.6,44.2,39.9,94,90,82,30.51,30.45,0,0,0,0.00
2013-10-21,58.5,47.7,41.8,53.2,44.8,39.6,94,90,81,30.48,30.41,0,0,0,0.00
2013-10-22,63.7,46.1,36.4,54.2,42.7,34.2,95,88,71,30.44,30.34,0,0,0,0.00
2013-10-23,63.5,45.1,34.6,52.8,41.1,32.4,95,86,68,30.36,30.29,0,0,0,0.00
2013-10-24,61.9,44.9,34.6,52.1,40.9,32.1,94,86,70,30.41,30.31,0,0,0,0.00
2013-10-25,53.6,47.3,42.7,49.5,44.7,40.2,94,91,86,30.63,30.41,0,0,0,0.00
2013-10-26,54.2,47.9,42.1,48.2,44.8,40.2,93,89,79,30.65,30.47,0,0,0,0.00
2013-10-27,57.2,50.8,45.9,50.5,44.6,37.7,94,81,56,30.47,30.24,0,0,0,0.00
2013-10-28,53.8,49.6,46.4,31.0,29.9,29.2,52,47,39,30.36,30.24,0,0,0,0.00
2013-10-29,52.9,39.6,30.6,37.7,31.4,25.9,85,73,52,30.33,30.26,0,0,0,0.00
2013-10-30,53.5,41.6,31.0,42.8,36.2,27.3,89,81,65,30.41,30.33,0,0,0,0.00
2013-10-31,53.3,48.6,45.7,50.1,45.9,42.4,92,90,88,30.55,30.36,0,0,0,0.00
2013-11-1,53.5,49.9,47.0,50.6,47.7,44.8,93,92,90,30.55,30.16,0,0,0,0.00
2013-11-2,49.1,45.1,40.7,47.4,43.3,38.5,94,93,91,30.15,29.73,0,0,0,0.00
2013-11-3,48.6,40.3,31.9,44.3,37.8,29.6,94,91,85,30.42,30.16,0,0,0,0.00
2013-11-4,43.6,35.4,27.7,39.6,32.7,25.5,94,90,83,30.49,30.39,0,0,0,0.00
2013-11-5,43.6,41.6,38.5,41.7,39.8,36.4,94,93,92,30.54,30.34,0,0,0,0.00
2013-11-6,48.2,44.5,42.1,46.1,42.6,40.5,94,93,90,30.63,30.32,0,0,0,0.00
2013-11-7,48.6,45.4,43.2,47.4,43.9,41.6,96,94,93,30.32,29.97,0,0,0,0.00
2013-11-8,50.4,46.6,43.6,47.3,44.4,41.7,94,92,87,30.46,30.22,0,0,0,0.00
2013-11-9,47.9,41.7,34.6,45.2,39.7,32.9,95,93,89,30.46,30.39,0,0,0,0.00
2013-11-10,50.2,44.5,39.1,46.7,41.7,37.2,95,90,79,30.46,30.42,0,0,0,0.00
2013-11-11,53.8,47.1,41.4,45.0,41.1,38.5,90,80,71,30.49,30.33,0,0,0,0.00
2013-11-12,54.5,48.4,41.4,51.9,46.4,39.0,96,93,91,30.60,30.32,0,0,0,0.00
2013-11-13,53.8,50.5,47.9,50.9,48.3,45.7,94,92,87,30.70,30.60,0,0,0,0.00
2013-11-14,49.5,45.5,42.1,47.8,43.7,40.2,94,93,92,30.60,30.33,0,0,0,0.00
2013-11-15,43.4,41.7,40.0,42.0,40.0,38.1,95,94,91,30.33,29.56,0,0,0,0.00
2013-11-16,44.6,41.4,38.5,42.8,39.6,36.6,95,93,90,30.02,29.62,0,0,0,0.00
2013-11-17,45.7,42.3,37.1,44.1,40.5,35.2,95,93,91,30.17,30.02,0,0,0,0.00
2013-11-18,45.2,43.8,42.1,43.8,42.4,40.8,95,95,94,30.17,29.82,0,0,0,0.00
2013-11-19,42.8,38.6,28.8,41.5,36.5,26.6,95,92,84,30.39,29.84,0,0,0,0.00
2013-11-20,34.7,27.6,23.0,28.1,24.1,20.3,92,87,72,30.83,30.39,0,0,0,0.00
2013-11-21,35.6,25.2,20.0,29.0,22.0,17.5,92,87,76,30.97,30.83,0,0,0,0.00
2013-11-22,41.4,29.3,22.7,34.3,25.9,20.2,93,87,75,30.97,30.77,0,0,0,0.00
2013-11-23,42.3,32.7,26.3,38.3,30.0,24.0,94,90,85,30.77,30.52,0,0,0,0.00
2013-11-24,47.2,35.1,28.4,41.3,32.3,26.5,94,90,80,30.56,30.48,0,0,0,0.00
2013-11-25,44.8,35.7,30.2,42.1,33.5,28.3,95,92,89,30.61,30.56,0,0,0,0.00
2013-11-26,42.8,34.8,28.1,40.1,32.8,26.1,94,92,90,30.57,30.42,0,0,0,0.00
2013-11-27,51.7,39.7,33.5,43.7,36.3,31.3,94,88,73,30.42,30.27,0,0,0,0.00
2013-11-28,49.7,38.7,31.3,47.4,36.7,29.4,95,92,89,30.47,30.33,0,0,0,0.00
2013-11-29,49.0,45.0,42.8,47.6,43.6,41.2,96,94,93,30.59,30.47,0,0,0,0.00
2013-11-30,46.3,45.1,43.6,44.9,43.7,42.2,95,95,94,30.60,30.36,0,0,0,0.00
2013-12-1,50.0,46.7,42.5,48.6,44.8,37.4,96,93,82,30.35,30.00,0,0,0,0.00
2013-12-2,41.8,34.5,28.1,36.3,31.2,19.9,93,88,71,30.43,30.04,0,0,0,0.00
2013-12-3,32.4,29.1,26.8,20.5,19.0,16.9,70,66,58,30.63,30.45,0,0,0,0.00
2013-12-4,31.5,27.5,23.0,17.8,16.3,15.2,72,63,51,30.67,30.62,0,0,0,0.00
2013-12-5,29.7,24.8,18.4,20.1,15.7,10.1,82,69,56,30.64,30.51,0,0,0,0.00
2013-12-6,23.2,20.7,17.8,9.7,4.7,2.0,56,50,44,30.64,30.53,0,0,0,0.00
2013-12-7,23.8,17.9,11.0,5.0,3.1,1.1,70,52,43,30.71,30.62,0,0,0,0.00
2013-12-8,28.4,19.5,9.7,17.5,11.9,2.4,80,72,62,30.85,30.70,0,0,0,0.00
2013-12-9,30.1,26.4,15.8,24.8,21.0,10.5,85,80,77,30.85,30.76,0,0,0,0.00
2013-12-10,34.0,31.6,28.8,30.9,28.5,24.8,90,88,85,30.78,30.72,0,0,0,0.00
2013-12-11,37.1,32.3,29.5,34.1,29.5,27.0,92,89,88,30.73,30.47,0,0,0,0.00
2013-12-12,36.4,32.2,27.7,34.5,30.2,25.5,94,92,90,30.46,30.31,0,0,0,0.00
2013-12-13,41.9,38.3,35.1,40.6,36.7,33.5,95,94,94,30.70,30.42,0,0,0,0.00
2013-12-14,43.6,39.4,36.5,42.5,38.0,34.9,96,95,94,30.72,30.59,0,0,0,0.00
2013-12-15,48.2,44.8,40.7,47.3,43.6,39.1,97,95,93,30.71,30.57,0,0,0,0.00
2013-12-16,44.3,37.7,31.3,42.4,36.0,29.5,95,94,93,30.78,30.56,0,0,0,0.00
2013-12-17,41.4,36.6,30.8,40.3,35.3,29.0,96,95,93,30.56,30.36,0,0,0,0.00
2013-12-18,43.0,38.7,32.8,41.1,36.2,27.3,96,91,80,30.50,30.32,0,0,0,0.00
2013-12-19,34.9,31.5,27.9,28.4,26.1,23.3,86,80,73,30.64,30.49,0,0,0,0.00
2013-12-20,33.8,32.6,31.3,32.2,30.3,27.8,94,91,86,30.48,30.01,0,0,0,0.00
2013-12-21,36.7,34.7,33.7,34.6,32.9,32.0,94,93,92,30.47,30.15,0,0,0,0.00
2013-12-22,38.3,35.6,34.2,37.0,34.1,32.6,95,94,93,30.58,30.46,0,0,0,0.00
2013-12-23,47.5,42.6,37.8,45.4,40.9,36.5,97,93,88,30.78,30.38,0,0,0,0.00
2013-12-24,44.3,39.8,32.8,41.9,37.9,31.0,95,93,90,30.89,30.78,0,0,0,0.00
2013-12-25,38.9,34.6,28.8,37.1,32.8,27.0,95,93,93,30.85,30.69,0,0,0,0.00
2013-12-26,45.7,39.6,35.6,43.8,37.9,34.0,96,94,92,30.70,30.51,0,0,0,0.00
2013-12-27,45.5,39.6,33.5,44.5,38.3,31.6,97,95,93,30.62,30.35,0,0,0,0.00
2013-12-28,46.1,41.7,38.5,43.9,40.0,36.9,96,94,91,30.81,30.62,0,0,0,0.00
2013-12-29,44.1,40.3,38.0,42.3,38.5,36.4,95,94,92,30.75,30.62,0,0,0,0.00
2013-12-30,45.7,41.7,38.5,43.5,40.0,36.9,95,94,91,30.62,30.39,0,0,0,0.00
2013-12-31,45.5,43.8,42.8,44.2,42.5,41.5,95,95,95,30.67,30.45,0,0,0,0.00
2014-1-1,44.8,41.3,35.5,43.5,39.9,34.0,96,95,94,30.71,30.55,0,0,0,0.00
2014-1-2,45.5,43.5,41.6,44.5,42.2,38.6,96,95,89,30.55,30.14,0,0,0,0.00